Overview Statistics Trail Chart Weather Telemetry Raw packets
 

This is the latest recevied weather packets stored in our database for station/object NT9G. If no packets are shown the sender has not sent any weather packets the latest 10 day(s).

<< 61 62 63 64 65 66 67 >>
Time Temp. Humidity Pressure Rain* Wind** Luminosity Snow
1777413364 18.89° C 49% 1014.3 hPa 0.51 mm - - -
1777413064 18.33° C 48% 1014 hPa 0.51 mm - - -
1777412763 18.89° C 48% 1014.3 hPa 0.51 mm - - -
1777412462 18.89° C 51% 1014.2 hPa 0.51 mm - - -
1777412162 18.33° C 49% 1014.1 hPa 0.51 mm - - -
1777411862 18.33° C 52% 1014.2 hPa 0.51 mm - - -
1777411562 17.78° C 52% 1014.1 hPa 0.51 mm - - -
1777411261 17.78° C 51% 1014.2 hPa 0.51 mm - - -
1777410961 17.22° C 52% 1014.1 hPa 0.51 mm - - -
1777410661 17.22° C 52% 1014 hPa 0.51 mm - - -
1777410360 17.22° C 55% 1013.7 hPa 0.51 mm - - -
1777410060 17.22° C 51% 1014 hPa 0.51 mm - - -
1777409760 17.22° C 50% 1014.2 hPa 0.51 mm - - -
1777409460 17.78° C 51% 1014.2 hPa 0.51 mm - - -
1777409159 17.22° C 52% 1014.3 hPa 0.51 mm - - -
1777408859 17.22° C 52% 1014.4 hPa 0.51 mm - - -
1777408559 17.78° C 54% 1014.4 hPa 0.51 mm - - -
1777408258 17.78° C 52% 1014.4 hPa 0.51 mm - - -
1777407958 17.78° C 52% 1014.6 hPa 0.51 mm - - -
1777407658 17.22° C 55% 1014.7 hPa 0.51 mm - - -
1777407358 17.22° C 51% 1014.9 hPa 0.51 mm - - -
1777407057 16.67° C 55% 1014.9 hPa 0.51 mm - - -
1777406757 16.67° C 53% 1015.1 hPa 0.51 mm - - -
1777406457 16.67° C 55% 1015 hPa 0.51 mm - - -
1777406157 16.67° C 53% 1014.9 hPa 0.51 mm - - -

* Rain since midnight (hover to see other rain measurements)
** Current wind speed in m/s (hover to see current wind gust speed)